Regional Weather Roundup
Issued by NWS

Home | Current Version | Previous Version | Graphics & Text | Print | Product List | Glossary On
Versions: 1 2 3 4 5 6 7 8 9 10 11 12 13 14 15 16 17 18 19 20 21 22 23 24 25 26 27 28 29 30 31 32 33 34 35 36 37 38 39 40 41 42 43 44 45 46 47 48 49 50
000
ASUS43 KMKX 300800
RWRWI

WISCONSIN REGIONAL WEATHER ROUNDUP
NATIONAL WEATHER SERVICE MILWAUKEE/SULLIVAN WI
300 AM CDT SUN AUG 30 2015

NOTE: "FAIR" INDICATES FEW OR NO CLOUDS BELOW 12,000 FEET WITH NO
SIGNIFICANT WEATHER AND/OR OBSTRUCTIONS TO VISIBILITY.

WIZ001-002-006>008-014>016-023>028-300900-
NORTHWEST WISCONSIN

CITY           SKY/WX    TMP DP  RH WIND       PRES   REMARKS
SUPERIOR ARPT  FOG       57  57  99 CALM      29.95F VSB 1/4
ASHLAND        CLEAR     61  61 100 S5        29.98S
HAYWARD        MOCLDY    61  60  97 S5        30.01S
SIREN          CLEAR     62  60  96 SE3       29.99F
CUMBERLAND     PTCLDY    57  55  94 S6        30.01S FOG
RICE LAKE      CLEAR     59  57  95 CALM      30.03F FOG
CHETEK         CLEAR    N/A N/A N/A E5        30.03S
LADYSMITH      CLOUDY    61  59  95 S5        30.06S
EAU CLAIRE     NOT AVBL
MENOMONIE      FOG       57  57  99 E3        30.02F VSB 1/2
NEW RICHMOND   CLEAR     61  60  98 S5        30.01S
OSCEOLA        CLEAR     61  61 100 S3        30.02F
$$

WIZ003>005-009-010-017-018-300900-
NORTH CENTRAL WISCONSIN

CITY           SKY/WX    TMP DP  RH WIND       PRES   REMARKS
MANITOWISH WTR CLOUDY    59  59 100 SW7       30.04S FOG
ARBOR VITAE    CLOUDY    59  58  96 SW5       30.04S FOG
WOODRUFF       CLOUDY    59  58  96 SW5       30.04S FOG
RHINELANDER    CLOUDY    59  58  96 SW6       30.06S FOG
EAGLE RIVER    FOG       59  59 100 SW5       30.04S VSB 3/4
LAND O LAKES   CLOUDY    61  61  99 CALM      30.05S FOG
PHILLIPS       CLOUDY    58  58 100 CALM      30.04F FOG
TOMAHAWK       FOG       55  54  97 CALM      30.06S VSB 1/2
MEDFORD        FOG       52  52 100 CALM      30.05F VSB 1/4
MERRILL        FOG       50  50 100 CALM      30.06F VSB 1/2
$$

WIZ029-030-035-036-043>047-300900-
CENTRAL WISCONSIN

CITY           SKY/WX    TMP DP  RH WIND       PRES   REMARKS
WAUSAU         FOG       54  53  97 E3        30.04F VSB 1/4
MOSINEE        FOG       54  54 100 CALM      30.07S VSB 1/4
MARSHFIELD     FOG       57  54  89 SW5       30.05F VSB 1/4
STEVENS POINT  CLOUDY    56  55  98 CALM      30.06S
WAUPACA        FOG       56  55  96 CALM      30.06R VSB 1/4
WAUTOMA        FOG       59  59 100 CALM      30.06S VSB 1/4
WISC RAPIDS    FOG       56  54  93 CALM      30.06S VSB 1/4
CAMP DOUGLAS   NOT AVBL
$$

WIZ011>013-019>022-031-037>040-048>050-300900-
NORTHEAST WISCONSIN

CITY           SKY/WX    TMP DP  RH WIND       PRES   REMARKS
ANTIGO         FOG       51  51 100 CALM      30.06F VSB 1/4
SHAWANO        FOG       56  55  96 CALM      30.05S VSB<1/4
OCONTO         CLOUDY    53  53 100 CALM      30.04S VSB<1/4
STURGEON BAY     N/A     57  54  88 CALM      30.06S VSB 1/4
GREEN BAY      FOG       59  58  96 CALM      30.05S VSB<1/4
MANITOWOC      NOT AVBL
APPLETON       CLOUDY    61  61 100 NW5       30.03F FOG
CLINTONVILLE   FOG       52  52 100 CALM      30.05S VSB 1/4
OSHKOSH        FOG       60  59  96 CALM      30.04S VSB 3/4
$$

WIZ032>034-041-042-053>061-300900-
SOUTHWEST WISCONSIN

CITY           SKY/WX    TMP DP  RH WIND       PRES   REMARKS
LA CROSSE      CLEAR     59  58  96 SE3       30.03S
SPARTA         PTCLDY    58  57  94 CALM      30.05F
VIROQUA        MOCLDY    61  61 100 SE5       30.05S
BOSCOBEL       CLOUDY    64  62  93 CALM      30.04F
PRAIRIE DU CHI FOG       62  60  95 CALM      30.04S VSB<1/4
PLATTEVILLE    CLOUDY    65  62  90 CALM      30.05S
$$

WIZ056-057-062-063-064-067-068-300900-
SOUTH CENTRAL WISCONSIN

CITY           SKY/WX    TMP DP  RH WIND       PRES   REMARKS
REEDSBURG      PTCLDY    59  59 100 CALM      30.04F
BARABOO/DELLS  FOG       58  56  94 CALM      30.05S VSB<1/4
LONE ROCK      NOT AVBL
MINERAL POINT  CLOUDY    64  61  88 CALM      30.06S
MADISON        CLOUDY    63  61  93 CALM      30.05R FOG
MIDDLETON      CLOUDY    65  65  99 CALM      30.05S
WATERTOWN      CLOUDY    62  62 100 CALM      30.04S FOG
MONROE         CLOUDY    63  63 100 CALM      30.05S FOG
JANESVILLE     CLOUDY    63  63 100 CALM      30.04S FOG
$$

WIZ051-052-058>065-066-070>072-300900-
SOUTHEAST WISCONSIN

CITY           SKY/WX    TMP DP  RH WIND       PRES   REMARKS
MILWAUKEE      FOG       63  61  93 NE3       30.03F VSB 1
WAUKESHA       CLOUDY    59  59 100 CALM      30.05S FOG
MILWAUKEE/TIMM CLOUDY    61  59  94 CALM      30.04F FOG
RACINE         FOG       63  61  93 NW3       30.05S VSB 1/4
BURLINGTON     CLOUDY    61  61  99 CALM      30.04F FOG
KENOSHA        CLOUDY    63  63 100 NW5       30.03F FOG
FOND DU LAC    FOG       57  56  96 CALM      30.04S VSB 1/4
SHEBOYGAN      FOG       54  54 100 CALM      30.04S VSB 1/4
WEST BEND      CLOUDY    61  59  94 CALM      30.04S FOG
JUNEAU         FOG       61  61  99 CALM      30.06R VSB 1
$$

LSZ147-162-300900-
LAKE SUPERIOR

STATION/POSITION TIME  TEMP    WIND        PRES    WAVE
                       AIR SEA DIR/SP/G            HT/PER
                 (UTC) (F)     (DEG/KT/KT) (MB)    (FT/S)
W MID LAKE BUOY  0650   59 54  200/ 10/ 12 1014.1F   1
DEVILS ISLAND    0700   67     200/  9/ 13 1014.3F
PORT WING        0700   60     150/  2/  2 1014.9F
SAXON HARBOR     0740   65     200/  3/  6 1014.6F
$$

LMZ867-665-643>646-300900-
LAKE MICHIGAN

STATION/POSITION TIME  TEMP    WIND        PRES    WAVE
                       AIR SEA DIR/SP/G            HT/PER
                 (UTC) (F)     (DEG/KT/KT) (MB)    (FT/S)
CHAMBERS ISLAND  0700   60     210/  4/  7 1017.3S
S GREEN BAY BUOY 0700   62 62  210/  4/  6 1018.6F
N MID LAKE BUOY  0650   63 65  210/  8/ 10 1016.8F   1
NORTHPORT PIER   0702   61     240/  2/  8 1016.9S
SISTER BAY       0704   61        CALM       N/A
ALGOMA LAKESHORE 0714             CALM       N/A
SHEBOYGAN LAKESH 0700   58      10/  3/  3 1017.5F
PORT WASHINGTON  0740   55      30/  2/  3 1017.6F
ATWATER BUOY     0700   53 50  330/  4/  6 1018.3F
MILWAUKEE LAKESH 0700   61     360/  5/  6   N/A
S MID LAKE BUOY  0650   68 68     CALM     1015.9F   1
KENOSHA   LAKESH 0700   63     340/  6/  7 1016.9S
$$

TC  - TEMPERATURE IN CELSIUS
VSB - VISIBILITY IN STATUTE MILES
WCI - WIND CHILL INDEX
HX  - HEAT INDEX



USA.gov is the U.S. government's official web portal to all federal, state and local government web resources and services.